"Period start","avg(HW err(1)/warn(2) (#))","avg(Visibility (m))","avg(Weather code (#))","avg(Precip intensity (mm/h))","min(HW err(1)/warn(2) (#))","max(HW err(1)/warn(2) (#))","std(HW err(1)/warn(2) (#))","med(HW err(1)/warn(2) (#))","min(Visibility (m))","max(Visibility (m))","std(Visibility (m))","med(Visibility (m))","min(Weather code (#))","max(Weather code (#))","std(Weather code (#))","med(Weather code (#))","min(Precip intensity (mm/h))","max(Precip intensity (mm/h))","std(Precip intensity (mm/h))","med(Precip intensity (mm/h))"
2013-08-22 00:00:00,2,47924,0,0.00,2,2,0,2,43847,50000,2264,48624,0,0,0,0,0.00,0.00,0.00,0.00
2013-08-22 00:10:00,2,46407,0,0.00,2,2,0,2,40533,50000,3387,46942,0,0,0,0,0.00,0.00,0.00,0.00
2013-08-22 00:20:00,2,46289,0,0.00,2,2,0,2,40822,50000,2416,46218,0,0,0,0,0.00,0.00,0.00,0.00
2013-08-22 00:30:00,2,43328,0,0.00,2,2,0,2,33287,50000,6346,45540,0,0,0,0,0.00,0.00,0.00,0.00
2013-08-22 00:40:00,2,47494,0,0.00,2,2,0,2,42219,50000,2403,48238,0,0,0,0,0.00,0.00,0.00,0.00
2013-08-22 00:50:00,2,39268,0,0.00,2,2,0,2,32704,47136,3835,38134,0,0,0,0,0.00,0.00,0.00,0.00
2013-08-22 01:00:00,2,33371,0,0.00,2,2,0,2,17858,42195,9092,38240,0,0,0,0,0.00,0.00,0.00,0.00
2013-08-22 01:10:00,2,17643,0,0.00,2,2,0,2,12703,21171,2606,18236,0,0,0,0,0.00,0.00,0.00,0.00
2013-08-22 01:20:00,2,17496,0,0.00,2,2,0,2,10314,26725,6126,15457,0,0,0,0,0.00,0.00,0.00,0.00
2013-08-22 01:30:00,2,13423,0,0.00,2,2,0,2,9738,18964,3300,12372,0,0,0,0,0.00,0.00,0.00,0.00
2013-08-22 01:40:00,2,22247,0,0.00,2,2,0,2,15568,29926,4343,21984,0,0,0,0,0.00,0.00,0.00,0.00
2013-08-22 01:50:00,2,27576,0,0.00,2,2,0,2,18389,41738,6936,27560,0,0,0,0,0.00,0.00,0.00,0.00
2013-08-22 02:00:00,2,47378,0,0.00,2,2,0,2,39841,50000,3555,49450,0,0,0,0,0.00,0.00,0.00,0.00
2013-08-22 02:10:00,2,48580,0,0.00,2,2,0,2,43064,50000,2322,49856,0,0,0,0,0.00,0.00,0.00,0.00
2013-08-22 02:20:00,2,49906,0,0.00,2,2,0,2,49057,50000,283,50000,0,0,0,0,0.00,0.00,0.00,0.00
2013-08-22 02:30:00,2,49941,0,0.00,2,2,0,2,49472,50000,157,50000,0,0,0,0,0.00,0.00,0.00,0.00
2013-08-22 02:40:00,2,45614,0,0.00,2,2,0,2,37547,50000,4033,46154,0,0,0,0,0.00,0.00,0.00,0.00
2013-08-22 02:50:00,2,44334,0,0.00,2,2,0,2,37154,50000,4290,45513,0,0,0,0,0.00,0.00,0.00,0.00
2013-08-22 03:00:00,2,43794,0,0.00,2,2,0,2,39150,49634,3324,42792,0,0,0,0,0.00,0.00,0.00,0.00
2013-08-22 03:10:00,2,45401,0,0.00,2,2,0,2,37437,50000,4475,47092,0,0,0,0,0.00,0.00,0.00,0.00
2013-08-22 03:20:00,2,42418,0,0.00,2,2,0,2,32942,50000,5442,43928,0,0,0,0,0.00,0.00,0.00,0.00
2013-08-22 03:30:00,2,41327,0,0.00,2,2,0,2,35766,46449,3469,41082,0,0,0,0,0.00,0.00,0.00,0.00
2013-08-22 03:40:00,2,39211,0,0.00,2,2,0,2,32032,48030,4738,38895,0,0,0,0,0.00,0.00,0.00,0.00
2013-08-22 03:50:00,2,42767,0,0.00,2,2,0,2,33536,47708,4303,44755,0,0,0,0,0.00,0.00,0.00,0.00
2013-08-22 04:00:00,2,32882,0,0.00,2,2,0,2,24951,39273,4473,32592,0,0,0,0,0.00,0.00,0.00,0.00
2013-08-22 04:10:00,2,38165,0,0.00,2,2,0,2,30117,46849,6131,38064,0,0,0,0,0.00,0.00,0.00,0.00
2013-08-22 04:20:00,2,34567,0,0.00,2,2,0,2,28157,41494,4658,34423,0,0,0,0,0.00,0.00,0.00,0.00
2013-08-22 04:30:00,2,45562,0,0.00,2,2,0,2,39428,50000,3361,45674,0,0,0,0,0.00,0.00,0.00,0.00
2013-08-22 04:40:00,2,43686,0,0.00,2,2,0,2,35763,50000,4950,44508,0,0,0,0,0.00,0.00,0.00,0.00
2013-08-22 04:50:00,2,48438,0,0.00,2,2,0,2,42432,50000,2566,50000,0,0,0,0,0.00,0.00,0.00,0.00
2013-08-22 05:00:00,2,43822,0,0.00,2,2,0,2,34614,50000,5972,45064,0,0,0,0,0.00,0.00,0.00,0.00
2013-08-22 05:10:00,2,40423,0,0.00,2,2,0,2,33597,48460,5023,38520,0,0,0,0,0.00,0.00,0.00,0.00
2013-08-22 05:20:00,2,37151,0,0.00,2,2,0,2,24298,46751,7680,38281,0,0,0,0,0.00,0.00,0.00,0.00
2013-08-22 05:30:00,2,42263,0,0.00,2,2,0,2,33618,48332,5848,44134,0,0,0,0,0.00,0.00,0.00,0.00
2013-08-22 05:40:00,2,41472,0,0.00,2,2,0,2,36572,47624,3305,41636,0,0,0,0,0.00,0.00,0.00,0.00
2013-08-22 05:50:00,2,38787,0,0.00,2,2,0,2,34679,42949,2746,39430,0,0,0,0,0.00,0.00,0.00,0.00
2013-08-22 06:00:00,2,41468,0,0.00,2,2,0,2,35161,50000,5358,39374,0,0,0,0,0.00,0.00,0.00,0.00
2013-08-22 06:10:00,2,43329,0,0.00,2,2,0,2,37205,50000,4396,43523,0,0,0,0,0.00,0.00,0.00,0.00
2013-08-22 06:20:00,2,34350,0,0.00,2,2,0,2,28939,44870,4989,32120,0,0,0,0,0.00,0.00,0.00,0.00
2013-08-22 06:30:00,2,34018,0,0.00,2,2,0,2,27047,38606,3901,34898,0,0,0,0,0.00,0.00,0.00,0.00
2013-08-22 06:40:00,2,43013,0,0.00,2,2,0,2,34060,49823,4330,43986,0,0,0,0,0.00,0.00,0.00,0.00
2013-08-22 06:50:00,2,39836,0,0.00,2,2,0,2,30460,50000,6668,38705,0,0,0,0,0.00,0.00,0.00,0.00
2013-08-22 07:00:00,2,49212,0,0.00,2,2,0,2,44626,50000,1603,49997,0,0,0,0,0.00,0.00,0.00,0.00
2013-08-22 07:10:00,2,49940,0,0.00,2,2,0,2,49630,50000,125,50000,0,0,0,0,0.00,0.00,0.00,0.00
2013-08-22 07:20:00,2,48060,0,0.00,2,2,0,2,39998,50000,3281,50000,0,0,0,0,0.00,0.00,0.00,0.00
2013-08-22 07:30:00,2,48166,0,0.00,2,2,0,2,42161,50000,2678,49750,0,0,0,0,0.00,0.00,0.00,0.00
2013-08-22 07:40:00,2,47515,0,0.00,2,2,0,2,43362,50000,2344,47848,0,0,0,0,0.00,0.00,0.00,0.00
2013-08-22 07:50:00,2,49424,0,0.00,2,2,0,2,45741,50000,1299,50000,0,0,0,0,0.00,0.00,0.00,0.00
2013-08-22 08:00:00,2,49555,0,0.00,2,2,0,2,47387,50000,819,50000,0,0,0,0,0.00,0.00,0.00,0.00
2013-08-22 08:10:00,2,50000,0,0.00,2,2,0,2,50000,50000,0,50000,0,0,0,0,0.00,0.00,0.00,0.00
2013-08-22 08:20:00,2,49988,0,0.00,2,2,0,2,49898,50000,30,50000,0,0,0,0,0.00,0.00,0.00,0.00
2013-08-22 08:30:00,2,49190,0,0.00,2,2,0,2,42275,50000,2308,50000,0,0,0,0,0.00,0.00,0.00,0.00
2013-08-22 08:40:00,2,41528,0,0.00,2,2,0,2,1098,50000,17115,50000,0,0,0,0,0.00,0.00,0.00,0.00
2013-08-22 08:50:00,2,47594,0,0.00,2,2,0,2,34239,50000,4882,50000,0,0,0,0,0.00,0.00,0.00,0.00
2013-08-22 09:00:00,2,49713,0,0.00,2,2,0,2,48062,50000,616,50000,0,0,0,0,0.00,0.00,0.00,0.00
2013-08-22 09:10:00,2,49616,0,0.00,2,2,0,2,46522,50000,1037,50000,0,0,0,0,0.00,0.00,0.00,0.00
2013-08-22 09:20:00,2,49907,0,0.00,2,2,0,2,49087,50000,273,50000,0,0,0,0,0.00,0.00,0.00,0.00
2013-08-22 09:30:00,2,49914,0,0.00,2,2,0,2,49290,50000,213,50000,0,0,0,0,0.00,0.00,0.00,0.00
2013-08-22 09:40:00,2,49144,0,0.00,2,2,0,2,44560,50000,1788,50000,0,0,0,0,0.00,0.00,0.00,0.00
2013-08-22 09:50:00,2,49926,0,0.00,2,2,0,2,49524,50000,156,50000,0,0,0,0,0.00,0.00,0.00,0.00
2013-08-22 10:00:00,2,50000,0,0.00,2,2,0,2,50000,50000,0,50000,0,0,0,0,0.00,0.00,0.00,0.00
2013-08-22 10:10:00,2,49779,0,0.00,2,2,0,2,47786,50000,664,50000,0,0,0,0,0.00,0.00,0.00,0.00
2013-08-22 10:20:00,2,49331,0,0.00,2,2,0,2,45410,50000,1449,50000,0,0,0,0,0.00,0.00,0.00,0.00
2013-08-22 10:30:00,2,50000,0,0.00,2,2,0,2,50000,50000,0,50000,0,0,0,0,0.00,0.00,0.00,0.00
2013-08-22 10:40:00,2,50000,0,0.00,2,2,0,2,50000,50000,0,50000,0,0,0,0,0.00,0.00,0.00,0.00
2013-08-22 10:50:00,2,49956,0,0.00,2,2,0,2,49556,50000,133,50000,0,0,0,0,0.00,0.00,0.00,0.00
2013-08-22 11:00:00,2,50000,0,0.00,2,2,0,2,50000,50000,0,50000,0,0,0,0,0.00,0.00,0.00,0.00
2013-08-22 11:10:00,2,50000,0,0.00,2,2,0,2,50000,50000,0,50000,0,0,0,0,0.00,0.00,0.00,0.00
2013-08-22 11:20:00,2,49620,0,0.00,2,2,0,2,46195,50000,1142,50000,0,0,0,0,0.00,0.00,0.00,0.00
2013-08-22 11:30:00,2,50000,0,0.00,2,2,0,2,50000,50000,0,50000,0,0,0,0,0.00,0.00,0.00,0.00
2013-08-22 11:40:00,2,49877,0,0.00,2,2,0,2,48769,50000,369,50000,0,0,0,0,0.00,0.00,0.00,0.00
2013-08-22 11:50:00,2,49922,0,0.00,2,2,0,2,49216,50000,235,50000,0,0,0,0,0.00,0.00,0.00,0.00
2013-08-22 12:00:00,2,50000,0,0.00,2,2,0,2,50000,50000,0,50000,0,0,0,0,0.00,0.00,0.00,0.00
2013-08-22 12:10:00,2,50000,0,0.00,2,2,0,2,50000,50000,0,50000,0,0,0,0,0.00,0.00,0.00,0.00
2013-08-22 12:20:00,2,49804,0,0.00,2,2,0,2,48035,50000,590,50000,0,0,0,0,0.00,0.00,0.00,0.00
2013-08-22 12:30:00,2,49782,0,0.00,2,2,0,2,47822,50000,653,50000,0,0,0,0,0.00,0.00,0.00,0.00
2013-08-22 12:40:00,2,50000,0,0.00,2,2,0,2,50000,50000,0,50000,0,0,0,0,0.00,0.00,0.00,0.00
2013-08-22 12:50:00,2,50000,0,0.00,2,2,0,2,50000,50000,0,50000,0,0,0,0,0.00,0.00,0.00,0.00
2013-08-22 13:00:00,2,50000,0,0.00,2,2,0,2,50000,50000,0,50000,0,0,0,0,0.00,0.00,0.00,0.00
2013-08-22 13:10:00,2,49910,0,0.00,2,2,0,2,49098,50000,271,50000,0,0,0,0,0.00,0.00,0.00,0.00
2013-08-22 13:20:00,2,50000,0,0.00,2,2,0,2,50000,50000,0,50000,0,0,0,0,0.00,0.00,0.00,0.00
2013-08-22 13:30:00,2,50000,0,0.00,2,2,0,2,50000,50000,0,50000,0,0,0,0,0.00,0.00,0.00,0.00
2013-08-22 13:40:00,2,49615,0,0.00,2,2,0,2,46686,50000,984,50000,0,0,0,0,0.00,0.00,0.00,0.00
2013-08-22 13:50:00,2,50000,0,0.00,2,2,0,2,50000,50000,0,50000,0,0,0,0,0.00,0.00,0.00,0.00
2013-08-22 14:00:00,2,46396,0,0.00,2,2,0,2,43188,50000,1933,46460,0,0,0,0,0.00,0.00,0.00,0.00
2013-08-22 14:10:00,2,49203,0,0.00,2,2,0,2,47014,50000,1226,50000,0,0,0,0,0.00,0.00,0.00,0.00
2013-08-22 14:20:00,2,47438,0,0.00,2,2,0,2,40579,50000,2937,48210,0,0,0,0,0.00,0.00,0.00,0.00
2013-08-22 14:30:00,2,49602,0,0.00,2,2,0,2,46018,50000,1195,50000,0,0,0,0,0.00,0.00,0.00,0.00
2013-08-22 14:40:00,2,49890,0,0.00,2,2,0,2,48899,50000,330,50000,0,0,0,0,0.00,0.00,0.00,0.00
2013-08-22 14:50:00,2,49850,0,0.00,2,2,0,2,48874,50000,339,50000,0,0,0,0,0.00,0.00,0.00,0.00
2013-08-22 15:00:00,2,49671,0,0.00,2,2,0,2,47181,50000,842,50000,0,0,0,0,0.00,0.00,0.00,0.00
2013-08-22 15:10:00,2,49576,0,0.00,2,2,0,2,47594,50000,754,50000,0,0,0,0,0.00,0.00,0.00,0.00
2013-08-22 15:20:00,2,50000,0,0.00,2,2,0,2,50000,50000,0,50000,0,0,0,0,0.00,0.00,0.00,0.00
2013-08-22 15:30:00,2,50000,0,0.00,2,2,0,2,50000,50000,0,50000,0,0,0,0,0.00,0.00,0.00,0.00
2013-08-22 15:40:00,2,50000,0,0.00,2,2,0,2,50000,50000,0,50000,0,0,0,0,0.00,0.00,0.00,0.00
2013-08-22 15:50:00,2,50000,0,0.00,2,2,0,2,50000,50000,0,50000,0,0,0,0,0.00,0.00,0.00,0.00
2013-08-22 16:00:00,2,50000,0,0.00,2,2,0,2,50000,50000,0,50000,0,0,0,0,0.00,0.00,0.00,0.00
2013-08-22 16:10:00,2,50000,0,0.00,2,2,0,2,50000,50000,0,50000,0,0,0,0,0.00,0.00,0.00,0.00
2013-08-22 16:20:00,2,50000,0,0.00,2,2,0,2,50000,50000,0,50000,0,0,0,0,0.00,0.00,0.00,0.00
2013-08-22 16:30:00,2,49975,0,0.00,2,2,0,2,49752,50000,74,50000,0,0,0,0,0.00,0.00,0.00,0.00
2013-08-22 16:40:00,2,50000,0,0.00,2,2,0,2,50000,50000,0,50000,0,0,0,0,0.00,0.00,0.00,0.00
2013-08-22 16:50:00,2,50000,0,0.00,2,2,0,2,50000,50000,0,50000,0,0,0,0,0.00,0.00,0.00,0.00
2013-08-22 17:00:00,2,50000,0,0.00,2,2,0,2,50000,50000,0,50000,0,0,0,0,0.00,0.00,0.00,0.00
2013-08-22 17:10:00,2,50000,0,0.00,2,2,0,2,50000,50000,0,50000,0,0,0,0,0.00,0.00,0.00,0.00
2013-08-22 17:20:00,2,50000,0,0.00,2,2,0,2,50000,50000,0,50000,0,0,0,0,0.00,0.00,0.00,0.00
2013-08-22 17:30:00,2,50000,0,0.00,2,2,0,2,50000,50000,0,50000,0,0,0,0,0.00,0.00,0.00,0.00
2013-08-22 17:40:00,2,50000,0,0.00,2,2,0,2,50000,50000,0,50000,0,0,0,0,0.00,0.00,0.00,0.00
2013-08-22 17:50:00,2,50000,0,0.00,2,2,0,2,50000,50000,0,50000,0,0,0,0,0.00,0.00,0.00,0.00
2013-08-22 18:00:00,2,49894,0,0.00,2,2,0,2,49183,50000,248,50000,0,0,0,0,0.00,0.00,0.00,0.00
2013-08-22 18:10:00,2,50000,0,0.00,2,2,0,2,50000,50000,0,50000,0,0,0,0,0.00,0.00,0.00,0.00
2013-08-22 18:20:00,2,50000,0,0.00,2,2,0,2,50000,50000,0,50000,0,0,0,0,0.00,0.00,0.00,0.00
2013-08-22 18:30:00,2,50000,0,0.00,2,2,0,2,50000,50000,0,50000,0,0,0,0,0.00,0.00,0.00,0.00
2013-08-22 18:40:00,2,50000,0,0.00,2,2,0,2,50000,50000,0,50000,0,0,0,0,0.00,0.00,0.00,0.00
2013-08-22 18:50:00,2,50000,0,0.00,2,2,0,2,50000,50000,0,50000,0,0,0,0,0.00,0.00,0.00,0.00
2013-08-22 19:00:00,2,50000,0,0.00,2,2,0,2,50000,50000,0,50000,0,0,0,0,0.00,0.00,0.00,0.00
2013-08-22 19:10:00,2,49904,0,0.00,2,2,0,2,49040,50000,288,50000,0,0,0,0,0.00,0.00,0.00,0.00
2013-08-22 19:20:00,2,50000,0,0.00,2,2,0,2,50000,50000,0,50000,0,0,0,0,0.00,0.00,0.00,0.00
2013-08-22 19:30:00,2,50000,0,0.00,2,2,0,2,50000,50000,0,50000,0,0,0,0,0.00,0.00,0.00,0.00
2013-08-22 19:40:00,2,49819,0,0.00,2,2,0,2,48658,50000,412,50000,0,0,0,0,0.00,0.00,0.00,0.00
2013-08-22 19:50:00,2,50000,0,0.00,2,2,0,2,50000,50000,0,50000,0,0,0,0,0.00,0.00,0.00,0.00
2013-08-22 20:00:00,2,50000,0,0.00,2,2,0,2,50000,50000,0,50000,0,0,0,0,0.00,0.00,0.00,0.00
2013-08-22 20:10:00,2,50000,0,0.00,2,2,0,2,50000,50000,0,50000,0,0,0,0,0.00,0.00,0.00,0.00
2013-08-22 20:20:00,2,49746,0,0.00,2,2,0,2,47476,50000,757,50000,0,0,0,0,0.00,0.00,0.00,0.00
2013-08-22 20:30:00,2,49874,0,0.00,2,2,0,2,48742,50000,377,50000,0,0,0,0,0.00,0.00,0.00,0.00
2013-08-22 20:40:00,2,50000,0,0.00,2,2,0,2,50000,50000,0,50000,0,0,0,0,0.00,0.00,0.00,0.00
2013-08-22 20:50:00,2,49860,0,0.00,2,2,0,2,48600,50000,420,50000,0,0,0,0,0.00,0.00,0.00,0.00
2013-08-22 21:00:00,2,50000,0,0.00,2,2,0,2,50000,50000,0,50000,0,0,0,0,0.00,0.00,0.00,0.00
2013-08-22 21:10:00,2,50000,0,0.00,2,2,0,2,50000,50000,0,50000,0,0,0,0,0.00,0.00,0.00,0.00
2013-08-22 21:20:00,2,49653,0,0.00,2,2,0,2,48139,50000,643,50000,0,0,0,0,0.00,0.00,0.00,0.00
2013-08-22 21:30:00,2,49412,0,0.00,2,2,0,2,47006,50000,1048,50000,0,0,0,0,0.00,0.00,0.00,0.00
2013-08-22 21:40:00,2,49972,0,0.00,2,2,0,2,49725,50000,82,50000,0,0,0,0,0.00,0.00,0.00,0.00
2013-08-22 21:50:00,2,50000,0,0.00,2,2,0,2,50000,50000,0,50000,0,0,0,0,0.00,0.00,0.00,0.00
2013-08-22 22:00:00,2,48988,0,0.00,2,2,0,2,46092,50000,1539,50000,0,0,0,0,0.00,0.00,0.00,0.00
2013-08-22 22:10:00,2,47249,0,0.00,2,2,0,2,42062,50000,3258,48808,0,0,0,0,0.00,0.00,0.00,0.00
2013-08-22 22:20:00,2,50000,0,0.00,2,2,0,2,50000,50000,0,50000,0,0,0,0,0.00,0.00,0.00,0.00
2013-08-22 22:30:00,2,49669,0,0.00,2,2,0,2,47261,50000,821,50000,0,0,0,0,0.00,0.00,0.00,0.00
2013-08-22 22:40:00,2,50000,0,0.00,2,2,0,2,50000,50000,0,50000,0,0,0,0,0.00,0.00,0.00,0.00
2013-08-22 22:50:00,2,49872,0,0.00,2,2,0,2,48715,50000,386,50000,0,0,0,0,0.00,0.00,0.00,0.00
2013-08-22 23:00:00,2,50000,0,0.00,2,2,0,2,50000,50000,0,50000,0,0,0,0,0.00,0.00,0.00,0.00
2013-08-22 23:10:00,2,48826,0,0.00,2,2,0,2,42506,50000,2423,50000,0,0,0,0,0.00,0.00,0.00,0.00
2013-08-22 23:20:00,2,49984,0,0.00,2,2,0,2,49842,50000,47,50000,0,0,0,0,0.00,0.00,0.00,0.00
2013-08-22 23:30:00,2,45797,0,0.00,2,2,0,2,35041,50000,4767,46987,0,0,0,0,0.00,0.00,0.00,0.00
2013-08-22 23:40:00,2,48430,0,0.00,2,2,0,2,44235,50000,2018,49070,0,0,0,0,0.00,0.00,0.00,0.00
2013-08-22 23:50:00,2,49025,0,0.00,2,2,0,2,42597,50000,2254,50000,0,0,0,0,0.00,0.00,0.00,0.00
